Powrót do katalogu

DELTA 1 DEB

AktywnyLEO
NORAD 2224·DEBRIS·🇺🇸 United States

Wystrzelony Feb 28, 1966 z Cape Canaveral Space Force Station

Loading…

Następne Przeloty (najbliższe 24 godziny)

TLE

ŚwieżeSource: Space-Track

Epoka: Sep 14, 2026, 05:33 UTC

1 02224U 66016D   26257.23173516 -.00000001  00000-0  24796-3 0  9992
2 02224 101.1466 171.2153 0138475  48.7233 104.7379 12.52180213757045

Śledź DELTA 1 DEB w czasie rzeczywistym z AllMySat

Download on the App Store